You are listening to:
SABE Gnd/Twr/App - Buenos Aires, Argentina

SABE 282100Z 25004KT 200V310 CAVOK 22/05 Q1012 NOSIG

If stream doesn't start automatically press the play button
If stream stops then reload player then press play